User: anonymous   Login
Location: Aigremont
(47.7188°N, 3.8925°E)
Time: 09:10:03
(UTC+00:00)
Language:

COSMO-SKYMED 1 - Orbit

View from above orbital plane
View from above orbital plane
View from above satellite
View from above satellite

Ground track
Ground track

The orbit data is extracted from the following two-line orbital elements,

1 31598U 07023A   20157.93358534 -.00000084 +00000-0 -40025-5 0  9993
2 31598 097.8849 341.2765 0001413 092.2578 267.8805 14.82156318703121
Epoch (UTC): 05 June 2020 22:24:21
Eccentricity: 0.0001413
inclination: 97.8849°
perigee height: 621 km
apogee height: 623 km
right ascension of ascending node: 341.2765°
argument of perigee: 92.2578°
revolutions per day: 14.82156318
mean anomaly at epoch: 267.8805°
orbit number at epoch: 70312

The dashed part of the orbit path shows where the satellite is in the earth's shadow,  

DLR